Waco, TX

9:04 AM CDT on April 30, 2017 (GMT -0500)
Waco Regional

Weather History for KACT - October, 2013

Change the Weather History Date:

Wednesday, October 30, 2013

  Actual Average Record
Temperature  
Mean Temperature 75 °F 64 °F  
Max Temperature 81 °F 75 °F 90 °F (1951)
Min Temperature 68 °F 53 °F 29 °F (1993)
Degree Days  
Heating Degree Days 0 4  
Month to date heating degree days 48 59  
Since 1 July heating degree days 48 65  
Cooling Degree Days 10 3  
Month to date cooling degree days 145 158  
Year to date cooling degree days 2852 2752  
Growing Degree Days 24 (Base 50)    
Moisture  
Dew Point 70 °F    
Average Humidity 90    
Maximum Humidity 100    
Minimum Humidity 79    
Precipitation  
Precipitation 0.71 in 0.12 in 3.06 in (1974)
Month to date precipitation 7.30 3.79  
Year to date precipitation 34.16 29.01  
Snow  
Snow 0.00 in 0.00 in 0.00 in ()
Month to date snowfall 0.0 0.0  
Since 1 July snowfall 0.0 0.0  
Since 1 September snowfall 0.0 0.0  
Snow Depth 0.00 in    
Sea Level Pressure  
Sea Level Pressure 29.94 in    
Wind  
Wind Speed 7 mph (SE)    
Max Wind Speed 17 mph    
Max Gust Speed 22 mph    
Visibility 5 miles    
Events Rain , Thunderstorm    
T = Trace of Precipitation, MM = Missing Value Source: NWS Daily Summary

Daily Weather History Graph

Daily Weather History Graph

Search for Another Location

Airport or City:

Trip Planner

Search our weather history database for the weather conditions in past years. The results will help you decide how hot, cold, wet, or windy it might be!

Date:

Astronomy

Oct. 30, 2013 Rise Set
Actual Time 7:43 AM CDT 6:41 PM CDT
Civil Twilight 7:18 AM CDT 7:06 PM CDT
Nautical Twilight 6:49 AM CDT 7:34 PM CDT
Astronomical Twilight 6:21 AM CDT 8:03 PM CDT
Moon 3:48 AM CDT 4:14 PM CDT
Length of Visible Light 11h 47m
Length of Day
10h 57m
Waning Crescent, 17% of the Moon is Illuminated
Oct 30
Waning Crescent
Nov 3
New
Nov 9
First Quarter
Nov 17
Full
Nov 25
Last Quarter

Hourly Weather History & Observations

Time (CDT) Temp. Heat Index Dew Point Humidity Pressure Visibility Wind Dir Wind Speed Gust Speed Precip Events Conditions
12:51 AM 72.0 °F - 66.9 °F 84% 30.05 in 10.0 mi South 11.5 mph - N/A   Scattered Clouds
1:01 AM 71.6 °F - 66.2 °F 83% 30.07 in 10.0 mi South 9.2 mph - N/A   Mostly Cloudy
1:41 AM 71.6 °F - 68.0 °F 88% 30.03 in 7.0 mi SE 17.3 mph - 0.00 in   Scattered Clouds
1:51 AM 71.1 °F - 68.0 °F 90% 30.01 in 8.0 mi SE 13.8 mph - 0.00 in   Partly Cloudy
2:51 AM 71.1 °F - 68.0 °F 90% 30.01 in 7.0 mi SE 9.2 mph - 0.00 in   Partly Cloudy
3:51 AM 70.0 °F - 69.1 °F 97% 29.99 in 6.0 mi SE 13.8 mph - 0.02 in   Mostly Cloudy
4:19 AM 69.8 °F - 69.8 °F 100% 30.01 in 5.0 mi SSE 11.5 mph - 0.00 in Rain Light Rain
4:51 AM 70.0 °F - 69.1 °F 97% 29.99 in 5.0 mi SSE 8.1 mph - 0.00 in   Overcast
5:25 AM 69.8 °F - 69.8 °F 100% 30.00 in 4.0 mi SSE 9.2 mph - N/A   Overcast
5:51 AM 70.0 °F - 69.1 °F 97% 29.95 in 4.0 mi SE 11.5 mph - N/A   Mostly Cloudy
6:01 AM 69.8 °F - 69.8 °F 100% 29.97 in 4.0 mi SE 11.5 mph - N/A Thunderstorm Mostly Cloudy
6:10 AM 69.8 °F - 69.8 °F 100% 29.98 in 4.0 mi SE 10.4 mph - N/A Thunderstorm Mostly Cloudy
6:13 AM 69.8 °F - 69.8 °F 100% 29.98 in 4.0 mi SE 12.7 mph - N/A   Mostly Cloudy
6:17 AM 71.6 °F - 69.8 °F 94% 29.98 in 3.0 mi SE 11.5 mph - N/A Thunderstorm Overcast
6:32 AM 71.6 °F - 69.8 °F 94% 29.97 in 2.5 mi ESE 11.5 mph - N/A   Overcast
6:38 AM 71.6 °F - 69.8 °F 94% 29.97 in 1.8 mi SE 6.9 mph - 0.01 in Rain , Thunderstorm Heavy Rain
6:45 AM 71.6 °F - 69.8 °F 94% 29.98 in 2.0 mi SE 5.8 mph - 0.06 in Rain , Thunderstorm Light Rain
6:49 AM 71.6 °F - 69.8 °F 94% 29.98 in 3.0 mi SE 5.8 mph - 0.06 in Rain , Thunderstorm Light Rain
6:51 AM 71.1 °F - 70.0 °F 96% 29.96 in 3.0 mi SE 6.9 mph - 0.06 in Rain , Thunderstorm Light Rain
6:54 AM 71.6 °F - 69.8 °F 94% 29.98 in 1.5 mi SE 9.2 mph - 0.01 in Rain , Thunderstorm Heavy Rain
7:03 AM 71.6 °F - 69.8 °F 94% 29.96 in 1.0 mi ESE 10.4 mph - 0.19 in Rain Heavy Rain
7:08 AM 71.6 °F - 69.8 °F 94% 29.96 in 2.0 mi ESE 9.2 mph - 0.21 in Rain , Thunderstorm Light Rain
7:17 AM 71.6 °F - 69.8 °F 94% 29.97 in 4.0 mi ESE 5.8 mph - 0.22 in Thunderstorm Overcast
7:31 AM 71.6 °F - 69.8 °F 94% 29.98 in 4.0 mi SSE 5.8 mph - 0.23 in Rain Light Rain
7:40 AM 71.6 °F - 69.8 °F 94% 29.98 in 2.5 mi ESE 8.1 mph - 0.23 in Rain Light Rain
7:43 AM 71.6 °F - 69.8 °F 94% 29.98 in 1.5 mi ESE 5.8 mph - 0.25 in Rain Heavy Rain
7:51 AM 71.1 °F - 70.0 °F 96% 29.96 in 1.5 mi ESE 8.1 mph - 0.34 in Rain Rain
8:51 AM 71.1 °F - 70.0 °F 96% 29.96 in 1.5 mi ESE 8.1 mph - 0.06 in Rain Light Rain
8:58 AM 71.6 °F - 69.8 °F 94% 29.98 in 2.5 mi ESE 9.2 mph - 0.00 in Rain Light Rain
9:08 AM 71.6 °F - 69.8 °F 94% 29.98 in 1.2 mi ESE 10.4 mph - 0.02 in Rain Light Rain
9:25 AM 71.6 °F - 69.8 °F 94% 29.98 in 1.0 mi ESE 10.4 mph - 0.05 in Rain , Thunderstorm Light Rain
9:40 AM 71.6 °F - 69.8 °F 94% 29.98 in 1.8 mi ESE 9.2 mph - 0.07 in Rain Light Rain
9:51 AM 71.1 °F - 70.0 °F 96% 29.97 in 1.2 mi ESE 9.2 mph - 0.09 in Rain Light Rain
10:05 AM 71.6 °F - 69.8 °F 94% 29.98 in 2.0 mi ESE 8.1 mph - 0.02 in   Overcast
10:17 AM 71.6 °F - 69.8 °F 94% 29.98 in 1.2 mi ESE 12.7 mph - 0.02 in Rain Light Rain
10:29 AM 71.6 °F - 69.8 °F 94% 29.98 in 3.0 mi SE 12.7 mph - 0.03 in   Overcast
10:36 AM 71.6 °F - 69.8 °F 94% 29.98 in 2.5 mi SE 13.8 mph - 0.03 in   Overcast
10:51 AM 72.0 °F - 70.0 °F 93% 29.96 in 2.5 mi SE 11.5 mph - 0.04 in   Overcast
11:02 AM 71.6 °F - 69.8 °F 94% 29.97 in 1.2 mi SE 11.5 mph - 0.00 in Rain Light Rain
11:13 AM 71.6 °F - 69.8 °F 94% 29.97 in 3.0 mi SE 11.5 mph - 0.02 in Rain Light Rain
11:29 AM 71.6 °F - 71.6 °F 100% 29.98 in 1.5 mi SE 12.7 mph - 0.02 in Rain Light Rain
11:44 AM 71.6 °F - 71.6 °F 100% 29.97 in 3.0 mi SE 9.2 mph - 0.04 in Rain Light Rain
11:51 AM 73.0 °F - 71.1 °F 93% 29.95 in 10.0 mi SE 12.7 mph - 0.04 in   Overcast
12:51 PM 73.9 °F - 72.0 °F 93% 29.94 in 7.0 mi SSE 6.9 mph - N/A   Overcast
1:18 PM 75.2 °F - 71.6 °F 89% 29.94 in 8.0 mi SE 8.1 mph - N/A   Overcast
1:31 PM 75.2 °F - 73.4 °F 94% 29.94 in 7.0 mi SSE 5.8 mph - N/A   Overcast
1:51 PM 73.9 °F - 73.0 °F 97% 29.91 in 6.0 mi Calm Calm - 0.00 in   Overcast
2:19 PM 75.2 °F - 73.4 °F 94% 29.90 in 6.0 mi ESE 4.6 mph - 0.01 in Rain , Thunderstorm Light Rain
2:33 PM 75.2 °F - 73.4 °F 94% 29.89 in 5.0 mi Calm Calm - 0.01 in Thunderstorm Mostly Cloudy
2:51 PM 77.0 °F - 73.9 °F 90% 29.86 in 6.0 mi Calm Calm - 0.01 in Thunderstorm Overcast
2:58 PM 77.0 °F - 73.4 °F 89% 29.88 in 7.0 mi ESE 3.5 mph - N/A   Overcast
3:38 PM 80.6 °F 85.4 °F 73.4 °F 79% 29.86 in 10.0 mi Calm Calm - N/A   Mostly Cloudy
3:51 PM 80.1 °F 84.2 °F 73.0 °F 79% 29.84 in 10.0 mi Variable 3.5 mph - N/A   Scattered Clouds
4:13 PM 78.8 °F - 73.4 °F 83% 29.85 in 10.0 mi West 4.6 mph - N/A   Mostly Cloudy
4:39 PM 80.6 °F 85.4 °F 73.4 °F 79% 29.84 in 10.0 mi West 3.5 mph - N/A   Mostly Cloudy
4:51 PM 80.1 °F 84.5 °F 73.9 °F 81% 29.82 in 10.0 mi Calm Calm - N/A   Mostly Cloudy
5:51 PM 78.1 °F - 73.9 °F 87% 29.82 in 10.0 mi Calm Calm - 0.00 in   Mostly Cloudy
6:51 PM 71.1 °F - 70.0 °F 96% 29.82 in 10.0 mi ENE 6.9 mph - N/A   Overcast
7:51 PM 70.0 °F - 68.0 °F 93% 29.84 in 10.0 mi East 8.1 mph - 0.00 in   Overcast
8:51 PM 69.1 °F - 66.9 °F 93% 29.84 in 8.0 mi East 8.1 mph - N/A   Overcast
9:51 PM 68.0 °F - 66.9 °F 96% 29.83 in 4.0 mi ENE 5.8 mph - 0.03 in Rain Light Rain
10:51 PM 68.0 °F - 66.9 °F 96% 29.82 in 6.0 mi ESE 4.6 mph - 0.02 in   Overcast
11:51 PM 68.0 °F - 66.9 °F 96% 29.81 in 5.0 mi North 5.8 mph - N/A   Overcast